Showing default

INTELSAT 905, 27438

Orbit data source: Space-Track

INTELSAT 905, 27438 is a payload satellite owned by Intelsat Ltd (US) (US) in GEO that was launched on Wed, 05 Jun 2002 UTC via an ARIANE 44L launch vehicle from the French Guiana (FRGUI). Payload-class satellites include a variety of spacecraft equipped with specific instruments for various scientific and technological missions. These include communications satellites like Starlink; space stations such as the ISS; scientific satellites like the Hubble; Earth observation satellites from companies like Planet Labs, Umbra, and HawkEye 360; GPS; miniature CubeSats for education and research; and military/defense satellites.

Loading next visibility...
Identifier
27438, 2002-027A
Orbit
GEO
Last TLE update
1 day ago
Origin
Manufacturer
SS/Loral
Mission
Operational Commercial Communications
Bus & Motor
FS-1300HL, R-4D-15-260
Mass
4,723 kg wet, 1,984 kg dry
Launch date (UTC)
2002-06-05 (23 years ago)
Launch vehicle
ARIANE 44L
Launch site
French Guiana (FRGUI)
Object type
Payload
Rocket body
Debris
Shape & HBR
Box + 2 Pan + 2 Dish, 31 m
Radar Cross Section
40.765 m², Large (>1 m²)

Expand to show TLE details & history

TLE from 1 day ago
0 INTELSAT 905
1 27438U 02027A   25185.75238741  .00000104  00000-0  00000-0 0  9998
2 27438   5.8772  74.0022 0002600  26.6068 316.0163  1.00272977 47877
Epoch: 2025-07-04T18:03Z
TLE epoch observation values (Epoch: 2025-07-04T18:03:26.272Z)
Latitude
-1.74619°
Longitude
-137.16332°
Altitude
35,778.084 km
Speed
3.075 km/s
True Right ascension
03h 46m 47s
True Declination
-1° 44' 40"
Sunlit
Object was in daylight at epoch
Visualization orbit readout
Latitude
-2.07412°
Longitude
-140.53236°
Altitude
35,778.497 km
Speed
3.075 km/s
Apparent Right ascension
03h 17m 39s
Apparent Declination
-8° 21' 43"
Sunlit
Object is in daylight
Visualization observer readout
Local Sidereal Time
05:41:25
Azimuth
222.874° SW
Elevation
31.402°
Doppler factor
1
Orbital elements
Apogee altitude
35,798.278 km
Perigee altitude
35,776.352 km
Semi-major axis
42,165.452 km
Eccentricity
0.00026
Inclination
5.8772°
RAAN
74.0022°
Arg. of periapsis
26.6068°
True anomaly
Unknown
Mean anomaly
316.0163°
Eccentric anomaly
Unknown
Mean motion
0.25067 °/min
Orbital period
1,436.13 mins
BSTAR
0
Loading historical data...
27438 neighbors
Loading maneuver chart data...
Loading SW <> Apogee altitude chart data...
Loading historical data...
Loading historical data...
Loading historical data...
Loading historical data...
Loading historical data...
Loading historical data...
Loading historical data...
Other satellites on launch #27 in the year 2002 (2002-06-05 UTC)

INTELSAT 905 Visibility forecast

Observer location: undefined°, undefined°

Span
Click to sort rows by Start time (UTC) header in descending order
Start Az.
Max El. time (UTC)
Max El. Az.
Max El.
End time (UTC)
End Az.
1440 mins2025-07-05 17:46:00.056Z222.861° SW2025-07-06 01:19:00.056Z228.812° WSW31.991°2025-07-06 17:46:00.056Z222.924° SW
|